Location: Champs
(48.8539°N, 2.6040°E)
Time: 03:53:52
(UTC+00:00)

ARIANE 5 R/B - Pass Details

Date: 26 October 2021
Orbit: 748 x 795 km, 98.7° (Epoch: 30 November)

Event Time Altitude Azimuth Distance (km) Brightness Sun altitude
Rises 04:26:12 0° 6° (N) 3,209 5.9 -20.4°
Reaches altitude 10° 04:28:45 10° 356° (N) 2,282 4.9 -20.0°
Enters shadow 04:32:26 28° 310° (NW) 1,384 3.4 -19.4°
